Location: Miramichi City (Newcastle)
(46.9830°N, 65.5670°W)
Time: 02:30:14
(UTC-03:00)

Iridium 12 - Visible Passes

Search period start: 16 April 2014 00:00
Search period end: 26 April 2014 00:00
Orbit: 776 x 779 km, 86.4° (Epoch: 15 April)

Date Brightness Start Highest point End Pass type
(mag) Time Alt. Az. Time Alt. Az. Time Alt. Az.
16 Apr 8.5 20:45:48 10° WSW 20:49:41 21° WNW 20:53:35 10° NNW visible
17 Apr 8.6 05:31:06 10° NNE 05:34:36 18° ENE 05:38:05 10° ESE visible
18 Apr 9.2 05:00:04 10° ENE 05:00:35 10° ENE 05:01:06 10° ENE visible
19 Apr 8.9 20:47:01 10° WSW 20:50:01 15° WNW 20:53:01 10° NW visible
20 Apr 8.2 05:30:40 10° NNE 05:34:54 24° ENE 05:39:06 10° SE visible
21 Apr 8.7 04:58:10 10° NE 05:00:59 14° ENE 05:03:47 10° ESE visible
22 Apr 9.4 20:49:09 10° W 20:50:23 11° WNW 20:51:38 10° NW visible
23 Apr 7.5 05:30:26 10° NNE 05:35:09 33° ENE 05:39:49 10° SE visible
24 Apr 8.4 04:57:31 10° NNE 05:01:18 20° ENE 05:05:05 10° ESE visible
25 Apr 8.8 04:25:35 10° NE 04:27:20 12° ENE 04:29:04 10° E visible
